TimeCDT,TemperatureF,Dew PointF,Humidity,Sea Level PressureIn,VisibilityMPH,Wind Direction,Wind SpeedMPH,Gust SpeedMPH,PrecipitationIn,Events,Conditions,WindDirDegrees,DateUTC
12:15 AM,69.8,68.0,94,29.92,5.0,Calm,Calm,-,N/A,,Clear,0,2013-07-25 05:15:00
12:35 AM,69.8,68.0,94,29.92,5.0,Calm,Calm,-,N/A,,Clear,0,2013-07-25 05:35:00
12:55 AM,69.8,66.2,88,29.92,5.0,Calm,Calm,-,N/A,,Clear,0,2013-07-25 05:55:00
1:15 AM,68.0,66.2,94,29.91,1.8,Calm,Calm,-,N/A,,Scattered Clouds,0,2013-07-25 06:15:00
1:35 AM,68.0,66.2,94,29.91,0.5,Calm,Calm,-,N/A,Fog,Fog,0,2013-07-25 06:35:00
1:55 AM,68.0,66.2,94,29.91,0.2,Calm,Calm,-,N/A,Fog,Fog,0,2013-07-25 06:55:00
2:15 AM,68.0,66.2,94,29.91,0.2,Calm,Calm,-,N/A,Fog,Fog,0,2013-07-25 07:15:00
2:35 AM,68.0,64.4,88,29.91,1.2,Calm,Calm,-,N/A,,Scattered Clouds,0,2013-07-25 07:35:00
2:55 AM,68.0,64.4,88,29.91,5.0,Calm,Calm,-,N/A,,Clear,0,2013-07-25 07:55:00
3:15 AM,68.0,64.4,88,29.91,0.5,Calm,Calm,-,N/A,Fog,Fog,0,2013-07-25 08:15:00
3:35 AM,68.0,64.4,88,29.92,0.5,Calm,Calm,-,N/A,Fog,Fog,0,2013-07-25 08:35:00
3:55 AM,68.0,64.4,88,29.92,0.5,Calm,Calm,-,N/A,Fog,Fog,0,2013-07-25 08:55:00
4:15 AM,66.2,64.4,94,29.91,4.0,Calm,Calm,-,N/A,,Clear,0,2013-07-25 09:15:00
4:35 AM,66.2,64.4,94,29.92,1.2,Calm,Calm,-,N/A,,Mostly Cloudy,0,2013-07-25 09:35:00
4:55 AM,66.2,64.4,94,29.92,1.2,Calm,Calm,-,N/A,,Mostly Cloudy,0,2013-07-25 09:55:00
5:15 AM,64.4,62.6,94,29.93,0.8,Calm,Calm,-,N/A,,Mist,0,2013-07-25 10:15:00
5:35 AM,64.4,62.6,94,29.93,1.5,Calm,Calm,-,N/A,,Scattered Clouds,0,2013-07-25 10:35:00
5:55 AM,64.4,62.6,94,29.94,0.8,Calm,Calm,-,N/A,,Mostly Cloudy,0,2013-07-25 10:55:00
6:15 AM,64.4,62.6,94,29.95,0.2,Calm,Calm,-,N/A,Fog,Fog,0,2013-07-25 11:15:00
6:35 AM,66.2,64.4,94,29.95,0.8,Calm,Calm,-,N/A,,Overcast,0,2013-07-25 11:35:00
6:55 AM,66.2,64.4,94,29.96,0.8,Calm,Calm,-,N/A,,Overcast,0,2013-07-25 11:55:00
7:15 AM,66.2,64.4,94,29.96,1.2,Calm,Calm,-,N/A,,Mostly Cloudy,0,2013-07-25 12:15:00
7:35 AM,68.0,64.4,88,29.97,5.0,Calm,Calm,-,N/A,,Scattered Clouds,0,2013-07-25 12:35:00
7:55 AM,68.0,66.2,94,29.97,10.0,Calm,Calm,-,N/A,,Clear,0,2013-07-25 12:55:00
8:15 AM,69.8,66.2,88,29.97,10.0,ESE,3.5,-,N/A,,Mostly Cloudy,110,2013-07-25 13:15:00
8:35 AM,71.6,66.2,83,29.98,10.0,Calm,Calm,-,N/A,,Mostly Cloudy,0,2013-07-25 13:35:00
8:55 AM,71.6,64.4,78,29.97,10.0,Calm,Calm,-,N/A,,Scattered Clouds,0,2013-07-25 13:55:00
9:15 AM,73.4,64.4,73,29.98,10.0,Calm,Calm,-,N/A,,Clear,0,2013-07-25 14:15:00
9:35 AM,75.2,64.4,69,29.98,10.0,Calm,Calm,-,N/A,,Clear,0,2013-07-25 14:35:00
9:55 AM,77.0,62.6,61,29.98,10.0,NNE,3.5,-,N/A,,Clear,30,2013-07-25 14:55:00
10:15 AM,77.0,62.6,61,29.98,10.0,Calm,Calm,-,N/A,,Clear,0,2013-07-25 15:15:00
10:35 AM,78.8,62.6,57,29.98,10.0,NE,4.6,-,N/A,,Clear,50,2013-07-25 15:35:00
10:55 AM,78.8,62.6,57,29.98,10.0,Calm,Calm,-,N/A,,Clear,0,2013-07-25 15:55:00
11:15 AM,78.8,60.8,54,29.98,10.0,Calm,Calm,-,N/A,,Clear,0,2013-07-25 16:15:00
11:35 AM,80.6,60.8,51,29.99,10.0,NNW,5.8,-,N/A,,Clear,330,2013-07-25 16:35:00
11:55 AM,80.6,59.0,48,29.99,10.0,WNW,6.9,-,N/A,,Clear,300,2013-07-25 16:55:00
12:15 PM,80.6,59.0,48,29.99,10.0,NNW,3.5,-,N/A,,Clear,340,2013-07-25 17:15:00
12:35 PM,82.4,60.8,48,29.99,10.0,WNW,8.1,-,N/A,,Clear,290,2013-07-25 17:35:00
12:55 PM,82.4,60.8,48,29.99,10.0,NW,8.1,-,N/A,,Clear,310,2013-07-25 17:55:00
1:15 PM,82.4,59.0,45,29.99,10.0,Calm,Calm,-,N/A,,Clear,0,2013-07-25 18:15:00
1:35 PM,82.4,60.8,48,29.99,10.0,NW,6.9,-,N/A,,Clear,310,2013-07-25 18:35:00
1:55 PM,82.4,59.0,45,29.99,10.0,NW,9.2,-,N/A,,Clear,310,2013-07-25 18:55:00
2:15 PM,82.4,59.0,45,29.99,10.0,NW,6.9,-,N/A,,Clear,320,2013-07-25 19:15:00
2:35 PM,84.2,59.0,42,29.99,10.0,NW,8.1,-,N/A,,Clear,320,2013-07-25 19:35:00
2:55 PM,82.4,59.0,45,29.99,10.0,NW,9.2,-,N/A,,Clear,320,2013-07-25 19:55:00
3:15 PM,84.2,57.2,40,30.00,10.0,NNW,9.2,-,N/A,,Clear,330,2013-07-25 20:15:00
3:35 PM,84.2,55.4,37,30.00,10.0,NW,8.1,-,N/A,,Clear,310,2013-07-25 20:35:00
3:55 PM,84.2,55.4,37,29.99,10.0,NNW,4.6,-,N/A,,Clear,330,2013-07-25 20:55:00
4:15 PM,84.2,55.4,37,29.99,10.0,NNW,4.6,-,N/A,,Clear,330,2013-07-25 21:15:00
4:35 PM,84.2,55.4,37,29.99,10.0,NW,3.5,-,N/A,,Clear,310,2013-07-25 21:35:00
4:55 PM,86.0,55.4,35,29.99,10.0,North,3.5,-,N/A,,Clear,350,2013-07-25 21:55:00
5:15 PM,82.4,57.2,42,29.99,10.0,NW,4.6,-,N/A,,Clear,310,2013-07-25 22:15:00
5:35 PM,82.4,60.8,48,29.99,10.0,NNW,6.9,-,N/A,,Clear,340,2013-07-25 22:35:00
5:55 PM,82.4,60.8,48,29.99,10.0,NNW,6.9,-,N/A,,Clear,330,2013-07-25 22:55:00
6:15 PM,82.4,60.8,48,30.00,10.0,NNW,6.9,-,N/A,,Clear,330,2013-07-25 23:15:00
6:35 PM,80.6,60.8,51,30.01,10.0,NNW,4.6,-,N/A,,Clear,340,2013-07-25 23:35:00
6:55 PM,80.6,62.6,54,30.01,10.0,NNW,3.5,-,N/A,,Clear,340,2013-07-25 23:55:00
7:15 PM,78.8,62.6,57,30.01,10.0,Calm,Calm,-,N/A,,Clear,0,2013-07-26 00:15:00
7:35 PM,78.8,62.6,57,30.01,10.0,Calm,Calm,-,N/A,,Clear,0,2013-07-26 00:35:00
7:55 PM,73.4,64.4,73,30.01,10.0,Calm,Calm,-,N/A,,Clear,0,2013-07-26 00:55:00
8:15 PM,71.6,64.4,78,30.01,10.0,East,3.5,-,N/A,,Clear,90,2013-07-26 01:15:00
8:35 PM,73.4,64.4,73,30.02,10.0,East,3.5,-,N/A,,Clear,100,2013-07-26 01:35:00
8:55 PM,73.4,62.6,69,30.03,10.0,Calm,Calm,-,N/A,,Clear,0,2013-07-26 01:55:00
9:15 PM,71.6,62.6,73,30.04,10.0,Calm,Calm,-,N/A,,Clear,0,2013-07-26 02:15:00
9:35 PM,71.6,64.4,78,30.04,10.0,Calm,Calm,-,N/A,,Clear,0,2013-07-26 02:35:00
9:55 PM,69.8,64.4,83,30.05,10.0,Calm,Calm,-,N/A,,Clear,0,2013-07-26 02:55:00
10:15 PM,69.8,64.4,83,30.05,10.0,Calm,Calm,-,N/A,,Clear,0,2013-07-26 03:15:00
10:35 PM,69.8,64.4,83,30.05,10.0,Calm,Calm,-,N/A,,Clear,0,2013-07-26 03:35:00
10:55 PM,68.0,64.4,88,30.05,10.0,Calm,Calm,-,N/A,,Scattered Clouds,0,2013-07-26 03:55:00
11:15 PM,68.0,64.4,88,30.05,10.0,Calm,Calm,-,N/A,,Clear,0,2013-07-26 04:15:00
11:35 PM,68.0,62.6,83,30.04,10.0,NNE,3.5,-,N/A,,Clear,20,2013-07-26 04:35:00
11:55 PM,68.0,62.6,83,30.04,10.0,Calm,Calm,-,N/A,,Clear,0,2013-07-26 04:55:00